Regional Weather Roundup
Issued by NWS

Home | Current Version | Previous Version | Graphics & Text | Print | Product List | Glossary Off
Versions: 1 2 3 4 5 6 7 8 9 10 11 12 13 14 15 16 17 18 19 20 21 22 23 24 25 26 27 28 29

000
ASUS45 KSLC 251710
RWRUT

UTAH REGIONAL WEATHER ROUNDUP
NATIONAL WEATHER SERVICE SALT LAKE CITY UT
1100 AM MDT SAT OCT 25 2014

UTZ001>011-023>025-251800-

NORTHERN UTAH

CITY           SKY/WX    TMP DP  RH WIND       PRES   REMARKS
BRIGHAM CITY   SUNNY     67  30  25 S9G17     30.07F
HILL AFB       SUNNY     69  34  27 S14       30.09F
LOGAN          SUNNY     53  36  52 NW3       30.07F
OGDEN          SUNNY     67  33  28 S9        30.07F
PROVO AIRPORT  SUNNY     66  36  32 S6        30.12F
SALT LAKE CITY SUNNY     70  31  23 S15       30.06F
VERNAL         SUNNY     54  36  50 VRB3      30.25F
WENDOVER       SUNNY     55  34  44 E9        30.05S
HEBER CITY     SUNNY     54  32  43 CALM      30.18F
WEST JORDAN    SUNNY     66  41  39 S23       30.09F

$$

UTZ012>022-026-027-251800-

SOUTHERN/CENTRAL UTAH

CITY           SKY/WX    TMP DP  RH WIND       PRES   REMARKS
BLANDING       SUNNY     63  30  28 S3        30.40S
BRYCE CANYON   SUNNY     57  33  40 SE12      30.36F
CEDAR CITY     SUNNY     68  36  30 S17G26    30.19F
DELTA          SUNNY     66  30  25 S13G18    30.13F
HANKSVILLE       N/A     55  32  41 CALM      30.24F
MILFORD        SUNNY     65  36  34 S20       30.15F
MOAB/CYNLANDS  SUNNY     65  31  28 S8        30.20F
PRICE          SUNNY     60  33  36 CALM      30.27F
ST GEORGE      SUNNY     63  36  36 SW3       30.16F
KANAB            N/A     64  34  32 CALM      30.29S

$$

REGIONAL REPORTS     COLORADO/ARIZONA

CITY           SKY/WX    TMP DP  RH WIND       PRES   REMARKS
CRAIG, CO      SUNNY     61  29  29 E9        30.28F
GRAND JUNCTION SUNNY     62  30  29 SE12      30.25F
RIFLE          SUNNY     55  30  38 CALM      30.30F
MONTROSE       SUNNY     62  27  26 CALM      30.32F
CORTEZ         SUNNY     64  30  27 CALM      30.33F
PAGE, AZ       SUNNY     64  33  31 NW6       30.23F
GRAND CANYON   SUNNY     65  39  38 S10G17    30.35S
KINGMAN        SUNNY     76  43  30 W3        30.16R
FLAGSTAFF      SUNNY     64  41  42 SW10G21   30.38F

$$

REGIONAL REPORTS    NEVADA/IDAHO/WYOMING

CITY           SKY/WX    TMP DP  RH WIND       PRES   REMARKS
LAS VEGAS, NV  MOSUNNY   79  39  23 S16       30.01F
ELY            SUNNY     63  36  36 S32G40    30.13F
ELKO           MOSUNNY   66  31  27 S25G41    29.97F HAZE
POCATELLO, ID  SUNNY     71  28  20 S24G35    30.00S
BURLEY         SUNNY     68  32  26 VRB3      29.97R
EVANSTON, WY   SUNNY     60  26  27 SW9       30.22F
ROCK SPRINGS   SUNNY     57  32  38 N3        30.24F
KEMMERER       SUNNY     55  27  33 CALM      30.25F

$$



USA.gov is the U.S. government's official web portal to all federal, state and local government web resources and services.